Time,TemperatureF,DewpointF,PressureIn,WindDirection,WindDirectionDegrees,WindSpeedMPH,WindSpeedGustMPH,Humidity,HourlyPrecipIn,Conditions,Clouds,dailyrainin,SoftwareType,DateUTC
2013-08-11 00:02:00,59.0,59.0,29.97,NE,50,0.0,2.0,99,0.00,,,0.00,,2013-08-11 07:02:00,
2013-08-11 00:13:00,59.0,59.0,29.97,NE,50,0.0,2.0,99,0.00,,,0.00,,2013-08-11 07:13:00,
2013-08-11 00:22:00,58.0,58.0,29.97,North,0,0.0,1.0,99,0.00,,,0.00,,2013-08-11 07:22:00,
2013-08-11 00:34:00,58.0,58.0,29.97,North,0,0.0,1.0,99,0.00,,,0.00,,2013-08-11 07:34:00,
2013-08-11 00:44:00,58.0,58.0,29.97,North,0,0.0,1.0,99,0.00,,,0.00,,2013-08-11 07:44:00,
2013-08-11 00:54:00,58.0,58.0,29.96,North,0,0.0,1.0,99,0.00,,,0.00,,2013-08-11 07:54:00,
2013-08-11 01:02:00,58.0,58.0,29.96,North,0,0.0,1.0,99,0.00,,,0.00,,2013-08-11 08:02:00,
2013-08-11 01:12:00,58.0,58.0,29.96,North,0,0.0,1.0,99,0.00,,,0.00,,2013-08-11 08:12:00,
2013-08-11 01:22:00,58.0,58.0,29.96,North,0,0.0,0.0,99,0.00,,,0.00,,2013-08-11 08:22:00,
2013-08-11 01:57:00,58.0,58.0,29.96,North,0,0.0,1.0,99,0.00,,,0.00,,2013-08-11 08:57:00,
2013-08-11 02:02:00,58.0,58.0,29.96,North,0,0.0,1.0,99,0.00,,,0.00,,2013-08-11 09:02:00,
2013-08-11 02:22:00,58.0,58.0,29.96,North,0,0.0,2.0,99,0.00,,,0.00,,2013-08-11 09:22:00,
2013-08-11 02:32:00,58.0,58.0,29.96,North,0,0.0,2.0,99,0.00,,,0.00,,2013-08-11 09:32:00,
2013-08-11 03:02:00,58.0,58.0,29.95,North,0,0.0,0.0,99,0.00,,,0.00,,2013-08-11 10:02:00,
2013-08-11 03:13:00,58.0,58.0,29.95,North,0,0.0,0.0,99,0.00,,,0.00,,2013-08-11 10:13:00,
2013-08-11 03:32:00,58.0,58.0,29.95,North,0,0.0,0.0,99,0.00,,,0.00,,2013-08-11 10:32:00,
2013-08-11 03:47:00,58.0,58.0,29.95,North,0,0.0,0.0,99,0.00,,,0.00,,2013-08-11 10:47:00,
2013-08-11 04:02:00,58.0,58.0,29.96,North,0,0.0,2.0,99,0.00,,,0.00,,2013-08-11 11:02:00,
2013-08-11 04:12:00,58.0,58.0,29.96,North,0,0.0,2.0,99,0.00,,,0.00,,2013-08-11 11:12:00,
2013-08-11 04:22:00,58.0,58.0,29.96,North,0,0.0,2.0,99,0.00,,,0.00,,2013-08-11 11:22:00,
2013-08-11 04:30:00,57.0,57.0,29.96,North,0,0.0,2.0,99,0.00,,,0.00,,2013-08-11 11:30:00,
2013-08-11 04:34:00,58.0,58.0,29.95,NE,46,0.0,2.0,99,0.00,,,0.00,,2013-08-11 11:34:00,
2013-08-11 04:44:00,58.0,58.0,29.95,NE,46,0.0,2.0,99,0.00,,,0.00,,2013-08-11 11:44:00,
2013-08-11 04:57:00,57.0,57.0,29.96,North,0,0.0,2.0,99,0.00,,,0.00,,2013-08-11 11:57:00,
2013-08-11 05:03:00,57.0,57.0,29.96,North,0,0.0,2.0,99,0.00,,,0.00,,2013-08-11 12:03:00,
2013-08-11 05:12:00,57.0,57.0,29.96,North,0,0.0,2.0,99,0.00,,,0.00,,2013-08-11 12:12:00,
2013-08-11 05:23:00,57.0,57.0,29.96,North,0,0.0,2.0,99,0.00,,,0.00,,2013-08-11 12:23:00,
2013-08-11 05:47:00,57.0,57.0,29.96,NE,45,0.0,2.0,99,0.00,,,0.00,,2013-08-11 12:47:00,
2013-08-11 05:55:00,57.0,57.0,29.96,NE,45,0.0,2.0,99,0.00,,,0.00,,2013-08-11 12:55:00,
2013-08-11 06:27:00,57.0,57.0,29.96,North,0,0.0,2.0,99,0.00,,,0.00,,2013-08-11 13:27:00,
2013-08-11 06:39:00,57.0,57.0,29.97,NE,45,0.0,2.0,99,0.00,,,0.00,,2013-08-11 13:39:00,
2013-08-11 06:46:00,57.0,57.0,29.97,NE,45,0.0,2.0,99,0.00,,,0.00,,2013-08-11 13:46:00,
2013-08-11 06:56:00,57.0,57.0,29.97,NE,45,0.0,2.0,99,0.00,,,0.00,,2013-08-11 13:56:00,
2013-08-11 07:02:00,57.0,57.0,29.97,NE,45,0.0,2.0,99,0.00,,,0.00,,2013-08-11 14:02:00,
2013-08-11 07:12:00,57.0,57.0,29.97,NE,45,0.0,2.0,99,0.00,,,0.00,,2013-08-11 14:12:00,
2013-08-11 07:36:00,58.0,58.0,29.97,North,0,0.0,2.0,99,0.00,,,0.00,,2013-08-11 14:36:00,
2013-08-11 07:49:00,58.0,58.0,29.97,North,0,0.0,2.0,99,0.00,,,0.00,,2013-08-11 14:49:00,
2013-08-11 07:56:00,58.0,58.0,29.97,North,0,0.0,0.0,99,0.00,,,0.00,,2013-08-11 14:56:00,
2013-08-11 08:02:00,58.0,58.0,29.97,North,0,0.0,2.0,99,0.00,,,0.00,,2013-08-11 15:02:00,
2013-08-11 08:12:00,58.0,58.0,29.97,North,0,0.0,2.0,99,0.00,,,0.00,,2013-08-11 15:12:00,
2013-08-11 08:33:00,58.0,58.0,29.97,North,0,0.0,2.0,99,0.00,,,0.00,,2013-08-11 15:33:00,
2013-08-11 08:44:00,58.0,58.0,29.97,North,0,0.0,1.0,99,0.00,,,0.00,,2013-08-11 15:44:00,
2013-08-11 08:58:00,59.0,59.0,29.97,North,0,0.0,0.0,99,0.00,,,0.00,,2013-08-11 15:58:00,
2013-08-11 09:11:00,59.0,59.0,29.97,North,0,0.0,0.0,99,0.00,,,0.00,,2013-08-11 16:11:00,
2013-08-11 09:23:00,59.0,59.0,29.97,North,0,0.0,0.0,99,0.00,,,0.00,,2013-08-11 16:23:00,
2013-08-11 09:32:00,60.0,60.0,29.97,NE,45,0.0,2.0,99,0.00,,,0.00,,2013-08-11 16:32:00,
2013-08-11 09:46:00,60.0,60.0,29.97,NE,45,0.0,2.0,99,0.00,,,0.00,,2013-08-11 16:46:00,
2013-08-11 09:56:00,60.0,60.0,29.97,NE,45,0.0,2.0,99,0.00,,,0.00,,2013-08-11 16:56:00,
2013-08-11 10:04:00,60.0,60.0,29.98,North,0,0.0,2.0,99,0.00,,,0.00,,2013-08-11 17:04:00,
2013-08-11 10:12:00,60.0,60.0,29.98,North,0,0.0,2.0,99,0.00,,,0.00,,2013-08-11 17:12:00,
2013-08-11 10:24:00,60.0,60.0,29.98,North,0,0.0,2.0,99,0.00,,,0.00,,2013-08-11 17:24:00,
2013-08-11 10:32:00,60.0,60.0,29.98,North,0,0.0,2.0,99,0.00,,,0.00,,2013-08-11 17:32:00,
2013-08-11 10:43:00,60.0,60.0,29.98,North,0,0.0,2.0,99,0.00,,,0.00,,2013-08-11 17:43:00,
2013-08-11 11:05:00,62.0,62.0,29.97,NNE,23,1.0,4.0,99,0.00,,,0.00,,2013-08-11 18:05:00,
2013-08-11 11:16:00,62.0,62.0,29.97,NNE,23,1.0,4.0,99,0.00,,,0.00,,2013-08-11 18:16:00,
2013-08-11 11:37:00,64.0,63.0,29.96,NE,39,1.0,4.0,96,0.00,,,0.00,,2013-08-11 18:37:00,
2013-08-11 11:55:00,64.0,62.0,29.96,NNW,329,2.0,7.0,93,0.00,,,0.00,,2013-08-11 18:55:00,
2013-08-11 12:02:00,65.0,62.0,29.96,NNW,335,2.0,6.0,91,0.00,,,0.00,,2013-08-11 19:02:00,
2013-08-11 12:12:00,65.0,62.0,29.96,NNW,335,2.0,6.0,91,0.00,,,0.00,,2013-08-11 19:12:00,
2013-08-11 12:23:00,65.0,62.0,29.96,NNW,335,2.0,6.0,91,0.00,,,0.00,,2013-08-11 19:23:00,
2013-08-11 12:32:00,66.0,62.0,29.95,WNW,285,3.0,8.0,88,0.00,,,0.00,,2013-08-11 19:32:00,
2013-08-11 12:58:00,66.0,62.0,29.95,WNW,285,3.0,8.0,88,0.00,,,0.00,,2013-08-11 19:58:00,
2013-08-11 13:15:00,66.0,62.0,29.95,WNW,292,3.0,8.0,86,0.00,,,0.00,,2013-08-11 20:15:00,
2013-08-11 13:24:00,65.0,61.0,29.95,NW,314,3.0,8.0,87,0.00,,,0.00,,2013-08-11 20:24:00,
2013-08-11 13:34:00,65.0,61.0,29.95,NW,324,2.0,8.0,86,0.00,,,0.00,,2013-08-11 20:34:00,
2013-08-11 13:44:00,65.0,61.0,29.95,NW,324,2.0,8.0,86,0.00,,,0.00,,2013-08-11 20:44:00,
2013-08-11 13:56:00,66.0,61.0,29.94,West,276,3.0,8.0,83,0.00,,,0.00,,2013-08-11 20:56:00,
2013-08-11 14:02:00,66.0,61.0,29.94,West,276,3.0,8.0,83,0.00,,,0.00,,2013-08-11 21:02:00,
2013-08-11 14:11:00,66.0,61.0,29.94,West,276,3.0,8.0,83,0.00,,,0.00,,2013-08-11 21:11:00,
2013-08-11 14:33:00,67.0,62.0,29.94,WNW,290,3.0,8.0,83,0.00,,,0.00,,2013-08-11 21:33:00,
2013-08-11 14:48:00,67.0,62.0,29.94,WNW,290,3.0,8.0,83,0.00,,,0.00,,2013-08-11 21:48:00,
2013-08-11 14:56:00,67.0,62.0,29.94,WNW,290,3.0,8.0,83,0.00,,,0.00,,2013-08-11 21:56:00,
2013-08-11 15:02:00,64.0,60.0,29.93,NW,314,3.0,8.0,86,0.00,,,0.00,,2013-08-11 22:02:00,
2013-08-11 15:13:00,64.0,60.0,29.93,NW,314,3.0,8.0,86,0.00,,,0.00,,2013-08-11 22:13:00,
2013-08-11 15:24:00,64.0,60.0,29.94,WSW,237,5.0,8.0,88,0.00,,,0.00,,2013-08-11 22:24:00,
2013-08-11 15:33:00,64.0,60.0,29.93,WNW,285,3.0,6.0,87,0.00,,,0.00,,2013-08-11 22:33:00,
2013-08-11 15:43:00,64.0,60.0,29.93,WNW,285,3.0,6.0,87,0.00,,,0.00,,2013-08-11 22:43:00,
2013-08-11 15:56:00,64.0,60.0,29.93,WNW,285,3.0,6.0,87,0.00,,,0.00,,2013-08-11 22:56:00,
2013-08-11 16:02:00,64.0,60.0,29.93,WNW,285,3.0,6.0,87,0.00,,,0.00,,2013-08-11 23:02:00,
2013-08-11 16:12:00,63.0,59.0,29.93,West,269,3.0,8.0,88,0.00,,,0.00,,2013-08-11 23:12:00,
2013-08-11 16:32:00,63.0,59.0,29.93,West,269,3.0,8.0,88,0.00,,,0.00,,2013-08-11 23:32:00,
2013-08-11 16:43:00,63.0,59.0,29.93,West,269,3.0,8.0,88,0.00,,,0.00,,2013-08-11 23:43:00,
2013-08-11 17:04:00,61.0,60.0,29.92,West,273,3.0,8.0,95,0.00,,,0.00,,2013-08-12 00:04:00,
2013-08-11 17:34:00,56.0,54.0,29.91,WSW,245,3.0,12.0,93,0.00,,,0.00,,2013-08-12 00:34:00,
2013-08-11 17:55:00,60.0,59.0,29.91,NE,36,1.0,5.0,97,0.00,,,0.00,,2013-08-12 00:55:00,
2013-08-11 18:02:00,61.0,60.0,29.91,SW,225,1.0,5.0,97,0.00,,,0.00,,2013-08-12 01:02:00,
2013-08-11 18:13:00,61.0,60.0,29.91,SW,225,1.0,5.0,97,0.00,,,0.00,,2013-08-12 01:13:00,
2013-08-11 18:23:00,61.0,60.0,29.91,SW,225,1.0,5.0,97,0.00,,,0.00,,2013-08-12 01:23:00,
2013-08-11 18:33:00,61.0,60.0,29.91,SW,225,1.0,5.0,97,0.00,,,0.00,,2013-08-12 01:33:00,
2013-08-11 18:43:00,61.0,60.0,29.91,SW,225,1.0,5.0,97,0.00,,,0.00,,2013-08-12 01:43:00,
2013-08-11 19:05:00,60.0,60.0,29.91,North,0,0.0,2.0,99,0.00,,,0.00,,2013-08-12 02:05:00,
2013-08-11 19:13:00,60.0,60.0,29.91,North,0,0.0,2.0,99,0.00,,,0.00,,2013-08-12 02:13:00,
2013-08-11 19:23:00,60.0,60.0,29.91,North,0,0.0,2.0,99,0.00,,,0.00,,2013-08-12 02:23:00,
2013-08-11 19:43:00,60.0,60.0,29.90,North,0,0.0,2.0,99,0.00,,,0.00,,2013-08-12 02:43:00,
2013-08-11 19:57:00,60.0,60.0,29.90,North,0,0.0,2.0,99,0.00,,,0.00,,2013-08-12 02:57:00,
2013-08-11 20:12:00,59.0,59.0,29.91,ENE,59,0.0,2.0,99,0.00,,,0.00,,2013-08-12 03:12:00,
2013-08-11 20:23:00,59.0,59.0,29.91,NE,51,0.0,2.0,99,0.00,,,0.00,,2013-08-12 03:23:00,
2013-08-11 20:34:00,59.0,59.0,29.91,NE,56,0.0,3.0,99,0.00,,,0.00,,2013-08-12 03:34:00,
2013-08-11 21:02:00,59.0,59.0,29.91,NE,56,0.0,3.0,99,0.00,,,0.00,,2013-08-12 04:02:00,
2013-08-11 21:12:00,59.0,59.0,29.91,NE,56,0.0,3.0,99,0.00,,,0.00,,2013-08-12 04:12:00,
2013-08-11 22:00:00,58.0,58.0,29.93,NE,51,0.0,3.0,99,0.00,,,0.00,,2013-08-12 05:00:00,
2013-08-11 22:22:00,58.0,58.0,29.93,NE,51,0.0,3.0,99,0.00,,,0.00,,2013-08-12 05:22:00,
2013-08-11 22:32:00,58.0,58.0,29.93,NE,51,0.0,3.0,99,0.00,,,0.00,,2013-08-12 05:32:00,
2013-08-11 22:43:00,58.0,58.0,29.93,NE,51,0.0,3.0,99,0.00,,,0.00,,2013-08-12 05:43:00,
2013-08-11 22:52:00,58.0,58.0,29.93,NE,51,0.0,3.0,99,0.00,,,0.00,,2013-08-12 05:52:00,
2013-08-11 23:22:00,57.0,57.0,29.93,North,0,0.0,2.0,99,0.00,,,0.00,,2013-08-12 06:22:00,
2013-08-11 23:32:00,57.0,57.0,29.93,North,0,0.0,2.0,99,0.00,,,0.00,,2013-08-12 06:32:00,
2013-08-11 23:42:00,57.0,57.0,29.93,North,0,0.0,2.0,99,0.00,,,0.00,,2013-08-12 06:42:00,
2013-08-11 23:52:00,57.0,57.0,29.93,North,0,0.0,1.0,99,0.00,,,0.00,,2013-08-12 06:52:00,